[[{"header":{"parameterUnit":"m.s-1","parameterCategory":1,"la1":30.2991,"la2":30.254,"lo1":-89.0895,"lo2":-89.0444,"dy":0.0017,"dx":0.0017,"nx":28,"ny":28,"refTime":"2024-07-28T03:00:00:Z","depth":0,"parameterNumber":2,"parameterNumberName":"U-component_of_WINDS"},"data":[0,0,0,0,0,0,0,0,0,0,0,0,0,0,0,0,0,0,0,0,0,0,0,0,0,0,0,0,0,0,0,0,0,0,0,0,0,0,0,0,0,0,0,0,0,0,0,0,0,0,0,0,0,0,0,0,0,0,0.6489,0.649,0,0.6553,0.6553,0.6554,0.6561,0.6561,0.656,0.6559,0.663,0.6632,0.6635,0,0,0,0,0,0,0,0,0,0,0,0,0,0.638,0.6382,0.6489,0.649,0.6491,0.6552,0.6553,0.6554,0.6561,0.6561,0.656,0.6559,0.6629,0.6632,0.6635,0,0,0,0,0,0,0,0,0,0,0,0,0,0.6434,0.6383,0.6489,0.6502,0.6503,0.6552,0.6553,0.6554,0.6562,0.6561,0.656,0.6559,0.6628,0.6632,0.6636,0.6678,0,0,0.6647,0.6649,0,0,0,0,0,0,0,0,0.6431,0.6438,0.6499,0.6501,0.6503,0.6548,0.6541,0.6596,0.6562,0.654,0.6559,0.6558,0.6604,0.661,0.6624,0.6681,0.6684,0.6647,0.665,0.6651,0.6652,0,0,0,0,0,0,0,0.6427,0.6436,0.6515,0.65,0.6502,0.6506,0.6513,0.6551,0.6577,0.6542,0.6542,0.6549,0.6605,0.662,0.6625,0.6685,0.6647,0.665,0.6653,0.6654,0.6781,0.6782,0,0,0,0,0,0,0.642,0.6432,0.6513,0.6516,0.6464,0.6509,0.6516,0.6535,0.6576,0.6582,0.655,0.6549,0.6614,0.6621,0.6628,0.668,0.6651,0.6655,0.6657,0.678,0.6781,0.6782,0,0,0,0,0,0,0.6418,0.6428,0.651,0.6475,0.6485,0.6512,0.6532,0.6536,0.6552,0.6583,0.6588,0.6561,0.6614,0.6623,0.6665,0.6682,0.6656,0.666,0.6778,0.678,0.6782,0.6784,0,0,0,0,0,0,0.6415,0.6427,0.6442,0.6475,0.6487,0.6544,0.6533,0.6538,0.6557,0.6557,0.6594,0.6599,0.6614,0.6659,0.6669,0.6687,0.6663,0.6777,0.6779,0.6781,0.6783,0.6786,0.6788,0,0,0,0,0,0.6411,0.6441,0.6442,0.6452,0.6506,0.6545,0.6553,0.6567,0.6559,0.6575,0.6595,0.6598,0.6679,0.6664,0.6674,0.6694,0.6776,0.6779,0.6781,0.6781,0.6785,0.6788,0,0,0,0,0,0,0.6412,0.6446,0.6448,0.6489,0.6514,0.6546,0.6567,0.6571,0.66,0.6599,0.6617,0.6626,0.6667,0.6685,0.6667,0.6737,0.6727,0.6732,0.6724,0.6727,0.673,0.6725,0.6666,0,0,0,0,0,0.6417,0.6443,0.6473,0.6507,0.6519,0.6541,0.6558,0.6567,0.6595,0.6606,0.6629,0.6657,0.6688,0.6709,0.674,0.6786,0.6794,0.6804,0.6807,0.6809,0.6813,0.6838,0.6843,0.6791,0.6791,0.6791,0,0,0.6427,0.6449,0.6465,0.6507,0.6528,0.6556,0.655,0.6581,0.6603,0.6611,0.6651,0.667,0.6702,0.6746,0.6766,0.6762,0.683,0.6813,0.6814,0.6817,0.6841,0.6846,0.6851,0.6792,0.6792,0.6792,0,0,0.6461,0.648,0.651,0.653,0.656,0.6574,0.6582,0.6613,0.6625,0.6665,0.6672,0.67,0.6754,0.6777,0.6795,0.6837,0.6841,0.6847,0.6862,0.6886,0.689,0.6894,0.6908,0.6913,0.6851,0.6851,0.6851,0,0.6471,0.6513,0.6526,0.6556,0.6574,0.6581,0.6612,0.6632,0.6671,0.6685,0.6679,0.6747,0.6769,0.6818,0.6828,0.6843,0.6853,0.6843,0.6888,0.6892,0.6896,0.691,0.6915,0.6851,0.6851,0.6851,0.6851,0,0.6523,0.6552,0.6573,0.6608,0.663,0.666,0.6679,0.67,0.6707,0.6722,0.6764,0.6791,0.6827,0.6839,0.6848,0.689,0.6886,0.6884,0.6874,0.6901,0.6914,0.692,0.6852,0.6852,0.6852,0.6852,0,0,0.6559,0.66,0.6608,0.6623,0.6657,0.6681,0.6713,0.6746,0.6762,0.679,0.6817,0.6863,0.6861,0.6882,0.6893,0.6914,0.6945,0.691,0.6911,0.6915,0.6993,0.6993,0.6999,0.6948,0.6949,0.695,0.699,0,0.6596,0.665,0.6662,0.6709,0.6736,0.6743,0.6771,0.6795,0.6811,0.6837,0.6856,0.6887,0.6882,0.6895,0.6916,0.6937,0.6961,0.6934,0.6975,0.6976,0.6965,0.7006,0.7007,0.7043,0.6995,0.6996,0.6997,0,0.6646,0.6672,0.6721,0.675,0.6762,0.6786,0.6817,0.6843,0.6871,0.6881,0.6904,0.6913,0.6947,0.6936,0.6984,0.6965,0.6983,0.6995,0.6997,0.7001,0.6987,0.7011,0.7055,0.706,0.7005,0.7005,0.7004,0,0.6666,0.6714,0.6749,0.6762,0.6798,0.6814,0.683,0.6858,0.6877,0.6905,0.6918,0.695,0.6968,0.6994,0.7012,0.7002,0.7059,0.7049,0.7068,0.7068,0.708,0.7079,0.7126,0.7092,0.7092,0.7092,0.7092,0,0.6706,0.6735,0.6758,0.678,0.6813,0.6828,0.6862,0.6878,0.6902,0.6928,0.6937,0.6962,0.6984,0.7012,0.7027,0.7064,0.7073,0.7082,0.7085,0.7081,0.7079,0.7092,0.709,0.7093,0.7093,0.7093,0.7092,0,0.6734,0.675,0.6789,0.6818,0.6827,0.685,0.6876,0.6898,0.6914,0.6946,0.6955,0.698,0.7014,0.7034,0.7077,0.7087,0.7128,0.7131,0.7117,0.7119,0.7137,0.7135,0.7194,0.7203,0.7163,0.7163,0.7164,0,0.6757,0.678,0.6811,0.6828,0.6844,0.6871,0.689,0.6906,0.6926,0.696,0.6978,0.7011,0.7039,0.7092,0.7115,0.7148,0.7151,0.717,0.7157,0.7151,0.7151,0.7149,0.7151,0.7172,0.7172,0.7173,0.7173,0,0.6797,0.6804,0.683,0.6859,0.688,0.6904,0.6928,0.6942,0.6963,0.6985,0.7018,0.7039,0.7082,0.7115,0.715,0.7168,0.7174,0.7177,0.7183,0.7178,0.7169,0.7174,0.7123,0.7176,0.7175,0.7175,0.7175,0.7175,0.6823,0.6843,0.6868,0.6897,0.6916,0.6938,0.696,0.6977,0.7004,0.7039,0.7048,0.7082,0.7111,0.7157,0.7177,0.7205,0.7202,0.7211,0.7214,0.7215,0.7215,0.7165,0.7212,0.7212,0.7212,0.7212,0.7212,0,0.6863,0.6879,0.6905,0.6937,0.696,0.6962,0.6989,0.7008,0.7038,0.7063,0.7089,0.7127,0.7159,0.7184,0.7218,0.7236,0.7239,0.7244,0.7243,0.7247,0.7216,0.7207,0.724,0.724,0.724,0.724,0.724,0.724,0.6886,0.692,0.693,0.6973,0.699,0.7022,0.7037,0.7058,0.7078,0.7119,0.7145,0.7161,0.7186,0.7221,0.7251,0.7258,0.727,0.7274,0.7281,0.7252,0.7249,0.7246,0.7237,0.7276,0.7277,0.7309,0.7309,0.731]},{"header":{"parameterUnit":"m.s-1","parameterCategory":1,"la1":30.2991,"la2":30.254,"lo1":-89.0895,"lo2":-89.0444,"dy":0.0017,"dx":0.0017,"nx":28,"ny":28,"refTime":"2024-07-28T03:00:00:Z","depth":0,"parameterNumber":3,"parameterNumberName":"V-component_of_WINDS"},"data":[0,0,0,0,0,0,0,0,0,0,0,0,0,0,0,0,0,0,0,0,0,0,0,0,0,0,0,0,0,0,0,0,0,0,0,0,0,0,0,0,0,0,0,0,0,0,0,0,0,0,0,0,0,0,0,0,0,0,1.5793,1.5794,0,1.5853,1.5854,1.5855,1.5873,1.5873,1.5872,1.5872,1.5931,1.5933,1.5935,0,0,0,0,0,0,0,0,0,0,0,0,0,1.5691,1.5693,1.5793,1.5794,1.5795,1.5853,1.5854,1.5855,1.5873,1.5873,1.5872,1.5872,1.5931,1.5933,1.5935,0,0,0,0,0,0,0,0,0,0,0,0,0,1.5742,1.5694,1.5793,1.5811,1.5813,1.5853,1.5854,1.5855,1.5873,1.5873,1.5872,1.5872,1.593,1.5933,1.5935,1.5961,0,0,1.5944,1.5945,0,0,0,0,0,0,0,0,1.5739,1.5745,1.5808,1.581,1.5812,1.5855,1.584,1.589,1.5873,1.585,1.5872,1.5872,1.5906,1.5911,1.5923,1.5964,1.5966,1.5944,1.5946,1.5947,1.5948,0,0,0,0,0,0,0,1.5735,1.5743,1.5817,1.5808,1.5811,1.5815,1.5822,1.5849,1.588,1.5852,1.5854,1.5861,1.5907,1.592,1.5924,1.5967,1.5944,1.5946,1.5948,1.5949,1.603,1.603,0,0,0,0,0,0,1.5729,1.574,1.5815,1.5819,1.5774,1.5817,1.5825,1.5842,1.588,1.5885,1.5861,1.5861,1.5916,1.5921,1.5927,1.5958,1.5947,1.5949,1.5951,1.6029,1.603,1.603,0,0,0,0,0,0,1.5727,1.5736,1.5813,1.578,1.579,1.5819,1.5839,1.5843,1.5856,1.5886,1.5891,1.5869,1.5916,1.5923,1.5952,1.596,1.5951,1.5953,1.6029,1.6029,1.603,1.6022,0,0,0,0,0,0,1.5724,1.5735,1.5746,1.578,1.5792,1.5838,1.5839,1.5845,1.5861,1.5862,1.5895,1.59,1.5916,1.5948,1.5955,1.5964,1.5955,1.6028,1.6029,1.603,1.6021,1.6022,1.6023,0,0,0,0,0,1.572,1.5741,1.5746,1.5755,1.5806,1.5838,1.5845,1.5864,1.5862,1.5872,1.5891,1.5899,1.5958,1.5951,1.5959,1.5969,1.6028,1.6029,1.603,1.6021,1.6022,1.6023,0,0,0,0,0,0,1.5706,1.5746,1.5752,1.5785,1.5808,1.5842,1.5856,1.5864,1.5888,1.5888,1.5909,1.5916,1.5944,1.5959,1.595,1.5995,1.5993,1.5996,1.5984,1.5985,1.5985,1.5981,1.5957,0,0,0,0,0,1.5707,1.5731,1.5764,1.5789,1.5801,1.5826,1.5841,1.5853,1.5878,1.5888,1.5909,1.5932,1.5956,1.5971,1.5995,1.6023,1.603,1.6034,1.6035,1.6035,1.6037,1.6052,1.6054,1.6034,1.6034,1.6034,0,0,1.5709,1.5733,1.5747,1.5787,1.5807,1.583,1.5834,1.5859,1.5876,1.5891,1.592,1.5936,1.5963,1.5992,1.6006,1.6006,1.6044,1.6037,1.6037,1.6039,1.6054,1.6055,1.6057,1.6035,1.6035,1.6034,0,0,1.5724,1.5746,1.5769,1.5788,1.5818,1.5834,1.584,1.5872,1.5883,1.5912,1.5924,1.5944,1.5985,1.6003,1.6018,1.6038,1.6046,1.6045,1.6049,1.6063,1.6064,1.6066,1.6072,1.6075,1.6047,1.6047,1.6047,0,1.5723,1.5759,1.5779,1.5803,1.582,1.5835,1.5857,1.5875,1.591,1.5921,1.592,1.5971,1.599,1.6023,1.6028,1.604,1.6045,1.6042,1.6063,1.6065,1.6066,1.6072,1.6075,1.6047,1.6047,1.6047,1.6047,0,1.5755,1.578,1.5795,1.5829,1.5847,1.587,1.5892,1.5908,1.5918,1.5934,1.5963,1.5987,1.6015,1.6023,1.6033,1.6057,1.6056,1.6059,1.6058,1.6067,1.6074,1.6076,1.6046,1.6047,1.6047,1.6047,0,0,1.5764,1.5808,1.5813,1.5829,1.5862,1.5881,1.5904,1.5932,1.5944,1.5968,1.5987,1.602,1.6023,1.604,1.6052,1.6064,1.6078,1.6066,1.6067,1.6066,1.6104,1.6101,1.6104,1.6083,1.6083,1.6084,1.6101,0,1.5783,1.5826,1.5844,1.5878,1.59,1.5914,1.5934,1.5955,1.597,1.5991,1.6007,1.603,1.6033,1.6042,1.6056,1.6073,1.6085,1.6072,1.6099,1.61,1.6092,1.6107,1.6105,1.612,1.6104,1.6104,1.6105,0,1.5811,1.5835,1.5872,1.5901,1.5911,1.5929,1.5955,1.5974,1.5999,1.6009,1.6027,1.6038,1.6061,1.6058,1.609,1.608,1.6092,1.6102,1.6103,1.6106,1.6103,1.611,1.6126,1.6128,1.6109,1.6108,1.6108,0,1.5813,1.5854,1.5881,1.5894,1.5929,1.5941,1.5956,1.598,1.5995,1.6017,1.6027,1.6052,1.6065,1.6083,1.61,1.6097,1.613,1.6129,1.6138,1.6137,1.6144,1.6144,1.6162,1.6152,1.6152,1.6152,1.6152,0,1.5832,1.5854,1.5883,1.5899,1.5923,1.5942,1.5965,1.5981,1.6002,1.602,1.6033,1.605,1.6072,1.6091,1.6105,1.6128,1.6134,1.6142,1.6145,1.6141,1.614,1.6149,1.6148,1.6153,1.6153,1.6153,1.6153,0,1.5839,1.5859,1.5889,1.5919,1.5927,1.5944,1.5969,1.5985,1.6,1.6024,1.603,1.6054,1.6077,1.6096,1.6127,1.6135,1.616,1.6164,1.6152,1.6153,1.6161,1.616,1.6186,1.619,1.6178,1.6178,1.6178,0,1.585,1.5866,1.5898,1.5912,1.5927,1.5949,1.5965,1.5984,1.5999,1.6027,1.6039,1.6064,1.6084,1.6121,1.614,1.6163,1.6167,1.6175,1.6171,1.6165,1.6167,1.6165,1.6167,1.6175,1.6175,1.6175,1.6175,0,1.5866,1.5875,1.5897,1.5923,1.5941,1.5962,1.5983,1.5993,1.6015,1.6032,1.6056,1.6072,1.6103,1.6127,1.6151,1.6166,1.6174,1.6176,1.6179,1.6175,1.6167,1.6171,1.6152,1.6176,1.6175,1.6175,1.6175,1.6175,1.5875,1.589,1.5915,1.5939,1.5956,1.5975,1.5991,1.6008,1.6029,1.6056,1.6066,1.6091,1.6113,1.6147,1.6161,1.618,1.6181,1.6186,1.6187,1.6188,1.6187,1.6164,1.6185,1.6185,1.6185,1.6185,1.6185,0,1.5892,1.5908,1.593,1.5959,1.5977,1.5983,1.6006,1.6021,1.6043,1.6063,1.6083,1.611,1.6133,1.6154,1.6177,1.6188,1.6192,1.6194,1.6193,1.6196,1.6185,1.618,1.619,1.619,1.619,1.619,1.619,1.619,1.5903,1.5928,1.594,1.5974,1.5989,1.6014,1.6027,1.6044,1.606,1.609,1.6109,1.6123,1.6143,1.6167,1.6188,1.6194,1.6201,1.6201,1.6208,1.6197,1.6197,1.6196,1.6191,1.6203,1.6203,1.6217,1.6217,1.6217]}]]